Regional Weather Roundup
Issued by NWS Wakefield, VA

Home | Current Version | Previous Version | Graphics & Text | Print | Product List | Glossary On
Versions: 1 2 3 4 5 6 7 8 9 10 11 12 13 14 15 16 17 18 19 20 21 22 23 24 25 26 27 28 29 30 31 32 33 34 35 36 37 38 39 40 41 42 43 44 45 46 47 48 49 50
000
ASUS41 KAKQ 031715
RWRAKQ

REGIONAL WEATHER ROUNDUP
NATIONAL WEATHER SERVICE WAKEFIELD VA
100 PM EDT MON AUG 03 2015

Note: "fair" indicates few or no clouds below 12,000 feet with no
significant weather and/or obstructions to visibility. * = Denotes
station may not report precipitation (e.g., rain,snow,etc.),
thunder or fog.

VAZ042-051-052>054-056-031800-
NORTHERN VIRGINIA

CITY           SKY/WX    TMP DP  RH WIND       PRES   REMARKS
WASH NATIONAL  MOSUNNY   88  68  51 S16       29.85F
DULLES         MOSUNNY   87  57  35 S8        29.85F
FORT BELVOIR   SUNNY     87  65  47 S8        29.85F
QUANTICO       MOSUNNY   89  64  44 S8        29.82S
FREDERICKSBRG* SUNNY     89  65  44 SW8       29.86F
STAFFORD*      SUNNY     87  60  39 W5        29.91F
WARRENTON      SUNNY     89  68  49 S5        29.86F
CULPEPER*      SUNNY     86  64  48 SW5       29.87F
MANASSAS*      NOT AVBL
LEESBURG*      SUNNY     91  63  38 S12G20    29.86F
WINCHESTER     MOSUNNY   88  59  37 SW6G16    29.86F
FRONT ROYAL*   FAIR      84  61  45 SW5       29.86S
LURAY*         FAIR      88  61  40 SW7       29.88S
$$

VAZ048-049-060>072-079>083-031800-
CENTRAL AND SOUTH CENTRAL VIRGINIA

CITY           SKY/WX    TMP DP  RH WIND       PRES   REMARKS
RICHMOND       MOSUNNY   89  69  51 S8        29.89F
CHESTERFIELD*  FAIR      88  64  45 SW8       29.91F
PETERSBURG*    MOSUNNY   88  77  69 S6        29.91F HX  99
HANOVER        MOSUNNY   88  66  48 W10       29.90F
TAPPAHANNOCK*  SUNNY     87  65  48 CALM      29.89F
QUINTON*       FAIR      86  70  59 S5        29.89F
CHARLOTTSVILLE SUNNY     85  62  46 S8        29.88F
GORDONSVILLE*  FAIR      86  64  48 S9        29.87F
ORANGE*        SUNNY     88  63  42 CALM      29.89F
LOUISA*        SUNNY     90  63  40 W5        29.88F
BUMPASS*       FAIR      86  64  47 SW10      29.89F
FARMVILLE*     SUNNY     89  60  37 SW7       29.90S
CREWE*         FAIR     N/A N/A N/A SW6       29.91F
FORT PICKETT*  FAIR      89  70  52 SW12      29.91F
CHASE CITY*    FAIR      87  72  61 W8        29.92F
CLARKSVILLE*   PTSUNNY   88  72  58 S5        29.91F
SOUTH HILL*    SUNNY     87  73  61 S3        29.98F
LAWRENCEVILLE* PTSUNNY   88  70  55 SW9       29.91F
EMPORIA*       MOSUNNY   88  70  55 SE6       29.92F
$$

VAZ088>098-031800-
SOUTHEAST VIRGINIA

CITY           SKY/WX    TMP DP  RH WIND       PRES   REMARKS
NORFOLK        MOSUNNY   90  68  48 S12G18    29.91F
VIRGINIA BEACH PTSUNNY   90  69  50 S10       29.91S
NORFOLK NAVAL  PTSUNNY   88  71  57 S9        29.91F
WEST POINT*    MOSUNNY   88  69  52 S6        29.91F
SALUDA*        FAIR      85  72  64 S6        29.89F
NEWPORT NEWS   SUNNY     88  72  58 SW13G21   29.90F
LANGLEY AFB    MOSUNNY   87  73  63 SW13      29.90F HX  95
FORT EUSTIS    MOSUNNY   88  70  54 S10       29.89F
WILLIAMSBURG*  SUNNY     91  75  59 S10       29.91F HX 102
HR EXEC AP*    FAIR      90  72  55 SW10      29.92F HX  96
FRANKLIN*      PTSUNNY   89  71  54 SW8       29.91F HX  96
WAKEFIELD      MOSUNNY   88  72  58 SW6       29.91F
$$

VAZ020-022-025-037-045-031800-
WEST CENTRAL AND SOUTHWEST VIRGINIA

CITY           SKY/WX    TMP DP  RH WIND       PRES   REMARKS
STAUNTON*      MOSUNNY   88  57  35 SW9       29.93S
WAYNESBORO*    FAIR      82  61  50 SW5       29.93F
HOT SPRINGS VA MOSUNNY   74  57  54 S5        30.04F
LYNCHBURG      SUNNY     85  57  38 NW9       29.94F
DANVILLE       SUNNY     90  62  39 NW10      29.93F
SOUTH BOSTON*  FAIR      87  68  53 W9        29.92F
MARTINSVILLE   MOSUNNY   89  57  33 CALM      29.97F
ROANOKE        MOSUNNY   87  56  34 VRB3      29.96F
BLACKSBURG     SUNNY     81  60  48 W6        30.04F
DUBLIN*          N/A     82  59  45 W6        30.02F
MARION*        MOSUNNY   79  59  49 SW8       30.06F
HILLSVILLE*    MOSUNNY   78  56  45 SW5       30.03F
RICHLANDS*     FAIR      76  61  58 S5        30.04F
WISE*          MOSUNNY   81  57  44 S5        30.06S
ABINGDON*      MOSUNNY   83  57  40 SW5       30.02F
$$

MDZ021>025-VAZ099-100-031800-
SOUTHERN MARYLAND AND THE DELMARVA PENINSULA

CITY           SKY/WX    TMP DP  RH WIND       PRES   REMARKS
PATUXENT RIVER PTSUNNY   86  65  49 SW7       29.87F
BAY BRIDGE APT   N/A     86  59  39 S8        29.86F
LEONARDTOWN    PTSUNNY   84  63  48 SW6       29.90S
DOVER          SUNNY     88  66  48 SW12      29.84F
GEORGETOWN     SUNNY     88  63  43 SW10      29.87F
EASTON         SUNNY     90  63  40 SW9       29.90F
CAMBRIDGE      SUNNY     86  61  42 SW10      29.87F
SALISBURY      SUNNY     87  64  46 SW9       29.88F
OCEAN CITY     MOSUNNY   84  74  71 S12G17    29.88F
WALLOPS ISLAND MOSUNNY   85  77  77 S15       29.90F HX  95
ACCOMACK*      PTSUNNY   88  73  62 SW10      29.90F HX  96
$$

NCZ012>017-030>032-031800-
NORTH CENTRAL AND EASTERN NORTH CAROLINA

CITY           SKY/WX    TMP DP  RH WIND       PRES   REMARKS
ROANOKE RAPIDS FAIR      88  64  45 S7        29.92F
RALEIGH        PTSUNNY   89  69  51 S7        29.94F
ELIZABETH CITY PTSUNNY   84  75  74 S12       29.93F
AHOSKIE*       SUNNY     87  67  51 CALM      29.92F
EDENTON*         N/A     84  74  70 S12       29.94F
CURRITUCK*     PTSUNNY   86  69  57 S7        29.94F
KILL DEVIL HLS PTSUNNY   81  72  73 SW7       29.94F
MANTEO         PTSUNNY   78  71  79 SW15      29.95F
CAPE HATTERAS  RAIN      74  71  91 S10       30.01S
TARBORO*         N/A     88  71  57 S3        29.93F
GOLDSBORO      MOSUNNY   88  72  58 W8        29.91F
WASHINGTON     SUNNY     85  73  67 S5        29.94F
GREENVILLE     PTSUNNY   86  72  62 SW6       29.95S
NEW BERN       PTSUNNY   78  72  81 S8        29.98S
WILMINGTON     LGT RAIN  75  72  90 S12       29.96R FOG
$$

VAZ048-031800-
ELSEWHERE

CITY           SKY/WX    TMP DP  RH WIND       PRES   REMARKS
HARRISBURG PA  MOSUNNY   88  64  44 SW12      29.81F
BALTIMORE      MOSUNNY   89  56  32 W9        29.84F
ANNAPOLIS      SUNNY     86  60  41 S8        29.85F
ANDREWS AFB    SUNNY     89  64  43 SW10      29.86F
PHILADELPHIA   MOSUNNY   88  61  40 SW15      29.85F
HENDERSON NC   PTSUNNY   86  65  49 SW5       29.94S
GREENSBORO     PTSUNNY   87  64  46 W8        29.95S
ROCKY MOUNT    MOSUNNY   91  69  48 S5        29.93F HX  96
$$

VAZ100-031800-
MARINE

STATION/POSITION TIME  TEMP    WIND        PRES    WAVE   SWELL
                       AIR SEA DIR/SP/G            HT/PER HT/PER
                 (UTC) (F)     (DEG/KT/KT) (MB)    (FT/S) (FT/S)
BRANDYWINE LGT   1600   78 75  230/  9/ 11 1012.0F
CAPE MAY NJ      1600   80 75  210/  9/ 12 1011.6F
LEWES DE         1600   86 73  230/  5/ 10 1011.6F
15NM E FENWICK I 1650   80 80  190/ 14/ 16 1012.0F   3/11   2/11
OCEAN-CITY-INLET 1600   81 76  190/  8/ 12 1011.6F
WACHAPREAGUE VA  1600   84 83  210/  9/ 10 1013.0F
THOMAS POINT MD  1700   83 81  190/ 13       N/A
GOOSES REEF MD   1700   84 82  230/ 10/ 12 1012.5F
COVE POINT MD    1600   83     210/ 12/ 15 1012.5F
SOLOMONS ISLAND  1600      83                N/A
BISHOPS HEAD MD  1600   82 83  190/ 10/ 13 1011.3F
PINEY POINT MD   1600          180/  4/  6   N/A
POTOMAC MD       1700   85 84  240/  8/ 10 1010.7F   0
CAMBRIDGE MD     1600   84 84  210/  9/ 11 1010.9F
LEWISETTA VA     1600   84 84  190/  6/  9 1011.7F
RAPPAHANNOCK LGT 1600          200/ 11/ 12 1013.5F
STINGRAY PT      1700   83 84  180/  4/  6 1012.5F   1
YORK RVR RNG VA  1600   84     240/  8/ 10 1012.6S
YORKTOWN VA      1600   83 84  240/ 10/ 12 1012.8S
JAMESTOWN VA     1700   85 86  190/  8/ 12   N/A
DOMINION TERM VA 1600   83     240/  8/ 10 1013.1F
KIPTOPEKE VA     1600      82  230/  6/  7   N/A
CHES BAY BRIDGE  1600   83 79  200/  8/ 10 1012.6F
CAPE HENRY VA    1600   85     210/  6/  8   N/A
CHESAPEAKE LGHT  1600   81     190/ 11/ 12 1013.9F
WILLOUBY STN VA  1600   82     260/  7/  8 1014.0F
CAPE HENRY BUOY  1628      82                N/A     3/12   2/12
1ST LANDING BUOY 1700      81              1012.6F   1/ 3
CAPE CHARLES BUO 1626      81                N/A     2/12   2/12
OFFSHORE WE BUOY 1611      82                N/A     3/ 5   2/ 5
64NM E OF VA BCH 1650   79 81  210/ 17/ 19 1013.6R   4/ 5   2/11
DUCK PIER NC     1600   79 65  190/ 13/ 17 1013.4F
44100 DUCK FRF   1624      81                N/A     3/12   2/12
44056 DUCK FRF   1611      79                N/A     2/12   2/12
OREGON INLET NC  1600   77 83  200/ 16/ 19 1015.1R
HATTERAS NC      1600   73 81  230/  8/ 11 1015.8R


USA.gov is the U.S. government's official web portal to all federal, state and local government web resources and services.